,,PA_Meas_PMT16A,,PR_Meas_QMR101_102,,RH_Meas_QMH101,,SR_Meas_QMS101,,TA_Meas_QMH101,,GenWind,,GenWind,
time,status,PA,status,PR,status,RH,status,SR,status,TA,status,DirAvg,status,SpdAvg,
2016-09-23, 00:20:04,VALID,916.226,VALID,0,VALID,80.61,VALID,67.7954,VALID,24.0097,VALID,6,VALID,0,
2016-09-23, 00:21:04,VALID,916.218,VALID,0,VALID,79.5275,VALID,66.9358,VALID,24.0292,INVALID,360,VALID,0,
2016-09-23, 15:07:04,VALID,917.435,VALID,0,INVALID,117.355,VALID,123.88,VALID,20.0733,VALID,55,VALID,0,
2016-09-23, 15:08:04,VALID,917.474,VALID,0,INVALID,117.332,VALID,127.748,VALID,20.0733,VALID,55,VALID,0,
2016-09-23, 15:09:04,VALID,917.454,VALID,0,INVALID,117.263,VALID,131.508,VALID,20.1139,VALID,55,VALID,0,
2016-09-23, 15:10:04,VALID,917.504,VALID,0,INVALID,117.378,VALID,134.946,VALID,20.1529,VALID,55,VALID,0,
2016-09-23, 15:11:04,VALID,917.507,VALID,0,INVALID,116.936,VALID,137.954,VALID,20.1529,VALID,341,VALID,0,
2016-09-23, 15:12:04,VALID,917.504,VALID,0,INVALID,117.119,VALID,140.103,VALID,20.1919,VALID,340,VALID,0,
2016-09-23, 15:13:04,VALID,917.506,VALID,0,INVALID,116.974,VALID,142.037,VALID,20.1513,VALID,340,VALID,0,
2016-09-23, 15:14:04,VALID,917.494,VALID,0,INVALID,117.164,VALID,143.434,VALID,20.1724,VALID,340,VALID,0,
2016-09-23, 15:15:04,VALID,917.561,VALID,0,INVALID,116.997,VALID,144.723,VALID,20.1708,VALID,340,VALID,0,
2016-09-23, 15:16:04,VALID,917.582,VALID,0,INVALID,116.585,VALID,146.227,VALID,20.1903,VALID,341,VALID,0,
2016-09-23, 15:17:04,VALID,917.519,VALID,0,INVALID,114.321,VALID,148.161,VALID,20.2098,VALID,6,VALID,0,
2016-09-23, 15:18:04,VALID,917.543,VALID,0,INVALID,113.894,VALID,150.525,VALID,20.2489,VALID,6,VALID,0,
2016-09-23, 15:19:04,VALID,917.546,VALID,0,INVALID,113.467,VALID,152.889,VALID,20.2879,VALID,45,VALID,0,
2016-09-23, 15:20:04,VALID,917.559,VALID,0,INVALID,113.002,VALID,155.36,VALID,20.3464,VALID,45,VALID,0,
2016-09-23, 15:21:04,VALID,917.57,VALID,0,INVALID,115.762,VALID,158.261,VALID,20.4049,VALID,54,VALID,0,
2016-09-23, 15:22:04,VALID,917.57,VALID,0,INVALID,114.504,VALID,161.914,VALID,20.4454,VALID,29,VALID,0,
2016-09-23, 15:23:04,VALID,917.583,VALID,0,INVALID,112.628,VALID,166.211,VALID,20.4845,VALID,29,VALID,0,
2016-09-23, 15:24:04,VALID,917.595,VALID,0,VALID,104,VALID,170.939,VALID,20.504,VALID,29,VALID,0,
2016-09-23, 15:25:04,VALID,917.57,VALID,0,INVALID,114.199,VALID,175.344,VALID,20.6015,VALID,29,VALID,0,
2016-09-23, 15:26:04,VALID,917.561,VALID,0,INVALID,113.871,VALID,179.319,VALID,20.621,VALID,29,VALID,0,
2016-09-23, 15:27:04,VALID,917.56,VALID,0,INVALID,113.688,VALID,181.79,VALID,20.678,VALID,29,VALID,0,
2016-09-23, 15:28:04,VALID,917.526,VALID,0,VALID,104,VALID,182.757,VALID,20.756,VALID,29,VALID,0,
2016-09-23, 15:29:04,VALID,917.546,VALID,0,VALID,104,VALID,182.328,VALID,20.834,VALID,39,VALID,0,
2016-09-23, 15:30:04,VALID,917.597,VALID,0,VALID,104,VALID,180.931,VALID,20.912,VALID,161,VALID,0,
2016-09-23, 15:31:04,VALID,917.58,VALID,0,INVALID,112.544,VALID,178.245,VALID,20.9901,VALID,165,VALID,0,
2016-09-23, 15:32:04,VALID,917.542,VALID,0,INVALID,111.172,VALID,175.022,VALID,21.0291,VALID,165,VALID,0,
2016-09-23, 15:33:04,VALID,917.568,VALID,0,INVALID,112.163,VALID,171.584,VALID,21.0681,VALID,164,VALID,0,
2016-09-23, 15:34:04,VALID,917.518,VALID,0,INVALID,112.651,VALID,168.253,VALID,21.1266,VALID,161,VALID,0,
2016-09-23, 15:35:04,VALID,917.557,VALID,0,INVALID,113.398,VALID,165.03,VALID,21.1657,VALID,119,VALID,0,
2016-09-23, 15:36:04,VALID,917.571,VALID,0,INVALID,114.405,VALID,161.591,VALID,21.1852,VALID,119,VALID,0,
2016-09-23, 15:37:04,VALID,917.627,VALID,0,INVALID,110.989,VALID,157.616,VALID,21.1852,VALID,167,VALID,0,
2016-09-23, 15:38:04,VALID,917.649,VALID,0,VALID,104,VALID,154.071,VALID,21.0486,VALID,245,VALID,0,
2016-09-23, 15:39:04,VALID,917.695,VALID,0,INVALID,112.316,VALID,150.525,VALID,20.8145,VALID,246,VALID,0,
2016-09-23, 15:40:04,VALID,917.706,VALID,0,INVALID,116.028,VALID,147.624,VALID,20.7755,VALID,246,VALID,0,
2016-09-23, 15:41:04,VALID,917.702,VALID,0,INVALID,114.534,VALID,145.26,VALID,20.6975,VALID,246,VALID,0,
2016-09-23, 15:42:04,VALID,917.68,VALID,0,INVALID,113.093,VALID,143.649,VALID,20.717,VALID,246,VALID,0,
2016-09-23, 15:43:04,VALID,917.686,VALID,0,VALID,97.2595,VALID,142.574,VALID,20.6975,VALID,180,VALID,0,
2016-09-23, 15:44:04,VALID,917.682,VALID,0,VALID,103.213,VALID,142.037,VALID,20.7154,VALID,180,VALID,0,
2016-09-23, 15:45:04,VALID,917.698,VALID,0,VALID,104,VALID,142.037,VALID,20.7934,VALID,180,VALID,0,
2016-09-23, 15:46:04,VALID,917.72,VALID,0,VALID,104,VALID,142.682,VALID,20.8535,VALID,181,VALID,0,
2016-09-23, 15:47:04,VALID,917.704,VALID,0,VALID,98.5327,VALID,144.079,VALID,20.873,VALID,197,VALID,0,
2016-09-23, 15:48:04,VALID,917.662,VALID,0,VALID,104,VALID,146.013,VALID,20.93,VALID,155,VALID,0,
2016-09-23, 15:49:04,VALID,917.635,VALID,0,VALID,92.1214,VALID,148.161,VALID,20.9105,VALID,40,VALID,0,
2016-09-23, 15:50:04,VALID,917.592,VALID,0,VALID,96.9089,VALID,150.632,VALID,20.9495,VALID,47,VALID,0,
2016-09-23, 15:51:04,VALID,917.643,VALID,0,VALID,103.823,VALID,153.104,VALID,21.0096,VALID,39,VALID,0,
2016-09-23, 15:52:04,VALID,917.667,VALID,0,VALID,102.863,VALID,155.467,VALID,21.047,VALID,336,VALID,0,
2016-09-23, 15:53:04,VALID,917.665,VALID,0,INVALID,110.006,VALID,157.401,VALID,21.1055,VALID,346,VALID,0,
2016-09-23, 15:54:04,VALID,917.688,VALID,0,INVALID,111.127,VALID,159.12,VALID,21.1445,VALID,346,VALID,0,
2016-09-23, 15:55:04,VALID,917.672,VALID,0,VALID,95.9102,VALID,160.625,VALID,21.1836,VALID,331,VALID,0,
2016-09-23, 15:56:04,VALID,917.703,VALID,0,VALID,104,VALID,161.699,VALID,21.2421,VALID,310,VALID,0,
2016-09-23, 15:57:04,VALID,917.709,VALID,0,VALID,101.956,VALID,162.344,VALID,21.2421,VALID,275,VALID,0,
2016-09-23, 15:58:04,VALID,917.723,VALID,0,VALID,100.858,VALID,162.988,VALID,21.3006,VALID,275,VALID,0,
2016-09-23, 15:59:04,VALID,917.715,VALID,0,VALID,104,VALID,164.063,VALID,21.3786,VALID,275,VALID,0,
2016-09-23, 16:00:04,VALID,917.72,VALID,0,VALID,104,VALID,165.459,VALID,21.4372,VALID,18,VALID,0,
2016-09-23, 16:01:04,VALID,917.708,VALID,0,VALID,95.8263,VALID,167.286,VALID,21.4372,VALID,23,VALID,0,
2016-09-23, 16:02:04,VALID,917.701,VALID,0,VALID,93.1581,VALID,169.112,VALID,21.4388,VALID,8,VALID,0,
2016-09-23, 16:03:04,VALID,917.733,VALID,0,VALID,95.0411,VALID,170.724,VALID,21.4372,VALID,2,VALID,0,
2016-09-23, 16:04:04,VALID,917.752,VALID,0,VALID,87.189,VALID,172.228,VALID,21.4177,VALID,348,VALID,0,
2016-09-23, 16:05:04,VALID,917.742,VALID,0,VALID,87.5549,VALID,173.41,VALID,21.4778,VALID,349,VALID,0,
2016-09-23, 16:06:04,VALID,917.775,VALID,0,VALID,87.6464,VALID,174.699,VALID,21.4762,VALID,349,VALID,0,
2016-09-23, 16:07:04,VALID,917.803,VALID,0,VALID,93.951,VALID,175.881,VALID,21.5347,VALID,26,VALID,0,
2016-09-23, 16:08:04,VALID,917.792,VALID,0,VALID,95.4757,VALID,177.063,VALID,21.5932,VALID,32,VALID,0,
2016-09-23, 16:09:04,VALID,917.803,VALID,0,VALID,103.595,VALID,178.245,VALID,21.6518,VALID,40,VALID,0,
2016-09-23, 16:10:04,VALID,917.82,VALID,0,VALID,104,VALID,179.534,VALID,21.751,VALID,24,VALID,0,
2016-09-23, 16:11:04,VALID,917.851,VALID,0,VALID,104,VALID,181.038,VALID,21.8095,VALID,16,VALID,0,
2016-09-23, 16:12:04,VALID,917.843,VALID,0,VALID,96.7945,VALID,182.757,VALID,21.8469,VALID,16,VALID,0,
2016-09-23, 16:13:04,VALID,917.858,VALID,0,VALID,96.0322,VALID,184.691,VALID,21.9249,VALID,16,VALID,0,
2016-09-23, 16:14:04,VALID,917.871,VALID,0,VALID,88.0962,VALID,186.948,VALID,21.9444,INVALID,360,VALID,0,
2016-09-23, 16:15:04,VALID,917.899,VALID,0,VALID,84.6504,VALID,189.741,VALID,21.9428,VALID,4,VALID,0,
2016-09-23, 16:16:04,VALID,917.896,VALID,0,VALID,87.5321,VALID,193.394,VALID,21.9444,VALID,6,VALID,0,
2016-09-23, 16:17:04,VALID,917.892,VALID,0,VALID,90.185,VALID,197.584,VALID,21.9054,VALID,1,VALID,0,
2016-09-23, 16:18:04,VALID,917.898,VALID,0,VALID,104,VALID,202.204,VALID,21.9444,VALID,1,VALID,0,
2016-09-23, 16:19:04,VALID,917.86,VALID,0,VALID,94.1187,VALID,206.932,VALID,21.964,VALID,1,VALID,0,
2016-09-23, 16:20:04,VALID,917.854,VALID,0,VALID,104,VALID,211.337,VALID,22.003,VALID,23,VALID,0,
2016-09-23, 16:21:04,VALID,917.847,VALID,0,VALID,104,VALID,214.99,VALID,22.1022,VALID,23,VALID,0,
2016-09-23, 16:22:04,VALID,917.876,VALID,0,VALID,93.5774,VALID,218.106,VALID,22.1786,VALID,23,VALID,0,
2016-09-23, 16:23:04,VALID,917.824,VALID,0,VALID,85.7939,VALID,220.362,VALID,22.2779,0,0,0,0,
